Location: Poughquag
(41.6090°N, 73.6820°W)
Time: 18:59:44
(UTC-05:00)

Hubble Space Telescope - Visible Passes

Search period start: 18 November 2019 00:00
Search period end: 28 November 2019 00:00
Orbit: 536 x 540 km, 28.5° (Epoch: 17 November)

Date Brightness Start Highest point End Pass type
(mag) Time Alt. Az. Time Alt. Az. Time Alt. Az.
21 Nov 3.6 19:09:44 10° SSW 19:10:04 11° SSW 19:10:04 11° SSW visible
22 Nov 3.3 17:19:27 10° S 17:20:35 11° S 17:21:44 10° SSE visible
22 Nov 3.4 18:59:05 10° SSW 19:00:06 12° SSW 19:00:06 12° SSW visible
23 Nov 3.3 17:08:18 10° SSW 17:09:51 12° S 17:11:25 10° SSE visible
23 Nov 3.3 18:48:31 10° SSW 18:50:10 12° S 18:50:10 12° S visible
24 Nov 3.3 16:57:20 10° SSW 16:59:07 13° S 17:00:55 10° SSE visible
24 Nov 3.4 18:38:05 10° SSW 18:39:30 11° S 18:40:16 11° S visible
25 Nov 3.5 18:27:55 10° SSW 18:28:45 11° S 18:29:37 10° S visible
